Location: Molino di Ancona
(43.6167°N, 13.3667°E)
Time: 08:36:51
(UTC+00:00)

Cosmos 1674 Rocket - Pass Details

Date: 15 December 2019
Orbit: 602 x 631 km, 82.5° (Epoch: 24 January)

Event Time Altitude Azimuth Distance (km) Brightness Sun altitude
Exits shadow 04:39:55 - 357° (N) 2,354 6.4 -19.5°
Reaches altitude 10° 04:40:54 10° 360° (N) 1,964 6.0 -19.4°
Maximum altitude 04:45:10 57° 79° (E) 711 4.1 -18.6°
Drops below altitude 10° 04:49:24 10° 159° (SSE) 1,941 6.6 -17.9°
Sets 04:51:38 0° 163° (SSE) 2,839 7.4 -17.5°
